CYKY

Details ICAO CYKY (YKY)
Name Kindersley
Region Canada
Timezone America/Regina (UTC-6.0)
Plans Departing 1
Arriving 1
Stats Elevation 2,277 ft / 694 m (AMSL)
Location 51.516708° -109.180019°
Runways 2
Magnetic Variation 11.735° E
Sunrise 2018-05-27 11:11:00 UTC / 2018-05-27 05:11:00 Local
Sunset 2018-05-28 03:19:43 UTC / 2018-05-27 21:19:43 Local
Advertisement - Login to hide

Runways

ID Width Length Bearing (true) Bearing (mag) Surface Threshold Offset Overrun Length
07 75 ft / 23 m 3,497 ft / 1,066 m 89.99° 78.25° Asphalt 0 ft / 0 m 0 ft / 0 m
17 98 ft / 30 m 2,281 ft / 695 m 179.90° 168.16° Grass 0 ft / 0 m 0 ft / 0 m
25 75 ft / 23 m 3,497 ft / 1,066 m 270.01° 258.27° Asphalt 0 ft / 0 m 0 ft / 0 m
35 98 ft / 30 m 2,281 ft / 695 m 359.90° 348.16° Grass 0 ft / 0 m 0 ft / 0 m

Map

Weather


0- 5 10 15 20 25 30 35+ Temperature / ° C

Clouds and Precipitation
Forecast for 2018-05-28 00:00 UTC. Updated an hour ago

Ground ~20,000 ft ~40,000 ft Winds

METAR

CYKY 280000Z VRB02KT 15SM FEW090 SCT260 24/03 A3001 RMK AC1CI2 SLP163 DENSITY ALT 3800FT

TAF

Not found

Frequencies

Unicom 122.80 MHz CTAF
Warning: Do not use this data for real-world aviation or navigation. No guarantee of current accuracy is given.